This is the latest recevied weather packets stored in our database for station/object CE3MXM-12. If no packets are shown the sender has not sent any weather packets the latest 10 day(s).
| Time | Temp. | Humidity | Pressure | Rain* | Wind** | Luminosity | Snow |
|---|---|---|---|---|---|---|---|
| 1777898373 | 14.44° C | 83% | 1015.6 hPa | - | - | - | - |
| 1777898073 | 14.44° C | 84% | 1015.8 hPa | - | - | - | - |
| 1777897772 | 13.89° C | 86% | 1015.7 hPa | - | - | - | - |
| 1777897472 | 13.89° C | 89% | 1015.6 hPa | - | - | - | - |
| 1777897172 | 13.33° C | 92% | 1015.6 hPa | - | - | - | - |
| 1777896873 | 12.78° C | 93% | 1015.8 hPa | - | - | - | - |
| 1777896572 | 12.22° C | 94% | 1015.5 hPa | - | - | - | - |
| 1777896272 | 12.22° C | 94% | 1015.7 hPa | - | - | - | - |
| 1777895972 | 12.22° C | 94% | 1015.5 hPa | - | - | - | - |
| 1777895672 | 12.22° C | 94% | 1015.3 hPa | - | - | - | - |
| 1777895372 | 12.22° C | 93% | 1015.4 hPa | - | - | - | - |
| 1777895072 | 12.22° C | 93% | 1015.5 hPa | - | - | - | - |
| 1777894772 | 12.22° C | 93% | 1015.5 hPa | - | - | - | - |
| 1777894471 | 12.22° C | 93% | 1015.5 hPa | - | - | - | - |
| 1777894171 | 12.22° C | 93% | 1015.2 hPa | - | - | - | - |
| 1777893872 | 11.67° C | 93% | 1015.5 hPa | - | - | - | - |
| 1777893571 | 11.67° C | 93% | 1015.4 hPa | - | - | - | - |
| 1777893271 | 11.67° C | 93% | 1015.4 hPa | - | - | - | - |
| 1777892971 | 11.67° C | 92% | 1015.6 hPa | - | - | - | - |
| 1777892671 | 12.22° C | 92% | 1015.4 hPa | - | - | - | - |
| 1777892371 | 12.22° C | 93% | 1015.4 hPa | - | - | - | - |
| 1777892071 | 12.22° C | 92% | 1015.4 hPa | - | - | - | - |
| 1777891771 | 12.22° C | 92% | 1015.2 hPa | - | - | - | - |
| 1777891470 | 12.78° C | 92% | 1015.5 hPa | - | - | - | - |
| 1777891170 | 12.78° C | 92% | 1015.3 hPa | - | - | - | - |
* Rain since midnight (hover to see other rain measurements)
** Current wind speed in m/s (hover to see current wind gust speed)